"datetime","temp","dp","rain_mm","uv","solar","mb","wind_mph","gust_mph","windchill","rh"
"2024-03-31 00:00:00",2.6,1.9,0.0,0.0,0,994.8,1,1,"",95
"2024-03-31 00:01:00",2.6,1.9,0.0,0.0,0,994.8,1,2,"",95
"2024-03-31 00:02:00",2.6,1.9,0.0,0.0,0,994.8,1,2,"",95
"2024-03-31 00:03:00",2.6,1.9,0.0,0.0,0,994.8,1,1,"",95
"2024-03-31 00:04:00",2.6,1.9,0.0,0.0,0,994.8,1,2,"",95
"2024-03-31 00:05:00",2.5,1.8,0.0,0.0,0,994.8,1,1,"",95
"2024-03-31 00:06:00",2.5,1.8,0.0,0.0,0,994.8,0,1,"",95
"2024-03-31 00:07:00",2.5,1.8,0.0,0.0,0,994.8,0,1,"",95
"2024-03-31 00:08:00",2.4,1.7,0.0,0.0,0,994.8,0,1,"",95
"2024-03-31 00:09:00",2.5,1.8,0.0,0.0,0,994.9,1,1,"",95
"2024-03-31 00:10:00",2.6,1.9,0.0,0.0,0,994.8,1,1,"",95
"2024-03-31 00:11:00",2.6,1.9,0.0,0.0,0,994.8,1,2,"",95
"2024-03-31 00:12:00",2.6,1.9,0.0,0.0,0,994.8,1,2,"",95
"2024-03-31 00:13:00",2.6,1.9,0.0,0.0,0,994.8,1,2,"",95
"2024-03-31 00:14:00",2.5,1.8,0.0,0.0,0,994.8,1,1,"",95
"2024-03-31 00:15:00",2.5,1.8,0.0,0.0,0,994.8,1,2,"",95
"2024-03-31 00:16:00",2.6,1.9,0.0,0.0,0,994.8,1,1,"",95
"2024-03-31 00:17:00",2.6,1.9,0.0,0.0,0,994.9,1,2,"",95
"2024-03-31 00:18:00",2.7,2.0,0.0,0.0,0,994.8,2,3,"",95
"2024-03-31 00:19:00",2.8,2.1,0.0,0.0,0,994.8,2,4,0.9,95
"2024-03-31 00:20:00",2.8,2.1,0.0,0.0,0,994.8,2,2,"",95
"2024-03-31 00:21:00",2.8,2.1,0.0,0.0,0,994.8,1,2,"",95
"2024-03-31 00:22:00",2.8,2.1,0.0,0.0,0,994.8,1,2,"",95
"2024-03-31 00:23:00",2.8,2.1,0.0,0.0,0,994.8,2,2,"",95
"2024-03-31 00:24:00",2.8,2.1,0.0,0.0,0,994.8,1,2,"",95
"2024-03-31 00:25:00",2.8,2.1,0.0,0.0,0,994.8,1,2,"",95
"2024-03-31 00:26:00",2.8,2.1,0.0,0.0,0,994.8,1,2,"",95
"2024-03-31 00:27:00",2.9,2.2,0.0,0.0,0,994.8,1,2,"",95
"2024-03-31 00:28:00",2.8,2.1,0.0,0.0,0,994.9,1,2,"",95
"2024-03-31 00:29:00",2.8,2.1,0.0,0.0,0,994.8,1,2,"",95
"2024-03-31 00:30:00",2.8,2.1,0.0,0.0,0,994.8,1,2,"",95
"2024-03-31 00:31:00",2.8,2.1,0.0,0.0,0,994.8,1,2,"",95
"2024-03-31 00:32:00",2.8,2.1,0.0,0.0,0,994.8,1,2,"",95
"2024-03-31 00:33:00",2.7,2.0,0.0,0.0,0,994.8,2,4,1.0,95
"2024-03-31 00:34:00",2.7,2.0,0.0,0.0,0,994.8,1,2,"",95
"2024-03-31 00:35:00",2.7,2.0,0.0,0.0,0,994.8,1,2,"",95
"2024-03-31 00:36:00",2.7,2.0,0.0,0.0,0,994.8,1,2,"",95
"2024-03-31 00:37:00",2.6,1.9,0.0,0.0,0,994.8,2,2,"",95
"2024-03-31 00:38:00",2.6,1.9,0.0,0.0,0,994.8,1,2,"",95
"2024-03-31 00:39:00",2.7,2.0,0.0,0.0,0,994.8,1,2,"",95
"2024-03-31 00:40:00",2.7,2.0,0.0,0.0,0,994.7,2,4,0.9,95
"2024-03-31 00:41:00",2.8,2.1,0.0,0.0,0,994.7,2,3,"",95
"2024-03-31 00:42:00",2.8,2.1,0.0,0.0,0,994.7,1,2,"",95
"2024-03-31 00:43:00",2.8,2.1,0.0,0.0,0,994.7,1,3,"",95
"2024-03-31 00:44:00",2.8,2.1,0.0,0.0,0,994.7,1,2,"",95
"2024-03-31 00:45:00",2.8,2.1,0.0,0.0,0,994.6,1,2,"",95
"2024-03-31 00:46:00",2.8,2.1,0.0,0.0,0,994.6,1,2,"",95
"2024-03-31 00:47:00",2.8,2.1,0.0,0.0,0,994.6,1,2,"",95
"2024-03-31 00:48:00",2.8,2.1,0.0,0.0,0,994.6,1,2,"",95
"2024-03-31 00:49:00",2.7,2.0,0.0,0.0,0,994.6,1,2,"",95
"2024-03-31 00:50:00",2.7,2.0,0.0,0.0,0,994.6,1,2,"",95
"2024-03-31 00:51:00",2.7,2.0,0.0,0.0,0,994.5,1,2,"",95
"2024-03-31 00:52:00",2.8,2.1,0.0,0.0,0,994.5,1,2,"",95
"2024-03-31 00:53:00",2.8,2.1,0.0,0.0,0,994.5,1,2,"",95
"2024-03-31 00:54:00",2.9,2.2,0.0,0.0,0,994.6,2,3,"",95
"2024-03-31 00:55:00",2.9,2.2,0.0,0.0,0,994.5,1,2,"",95
"2024-03-31 00:56:00",2.9,2.2,0.0,0.0,0,994.6,1,2,"",95
"2024-03-31 00:57:00",2.9,2.2,0.0,0.0,0,994.5,1,2,"",95
"2024-03-31 00:58:00",2.9,2.2,0.0,0.0,0,994.5,1,2,"",95
"2024-03-31 00:59:00",2.9,2.2,0.0,0.0,0,994.5,2,3,"",95
"2024-03-31 02:00:00",2.9,2.2,0.0,0.0,0,994.5,2,3,"",95
"2024-03-31 02:01:00",2.9,2.2,0.0,0.0,0,994.5,2,2,"",95
"2024-03-31 02:02:00",2.9,2.2,0.0,0.0,0,994.4,2,2,"",95
"2024-03-31 02:03:00",2.9,2.2,0.0,0.0,0,994.4,1,2,"",95
"2024-03-31 02:04:00",2.8,2.1,0.0,0.0,0,994.4,1,2,"",95
"2024-03-31 02:05:00",2.8,2.1,0.0,0.0,0,994.4,1,2,"",95
"2024-03-31 02:06:00",2.8,2.1,0.0,0.0,0,994.4,1,2,"",95
"2024-03-31 02:07:00",2.8,2.1,0.0,0.0,0,994.4,1,2,"",95
"2024-03-31 02:08:00",2.9,2.2,0.0,0.0,0,994.4,1,2,"",95
"2024-03-31 02:09:00",2.9,2.2,0.0,0.0,0,994.4,1,1,"",95
"2024-03-31 02:10:00",2.9,2.2,0.0,0.0,0,994.4,1,1,"",95
"2024-03-31 02:11:00",2.8,2.1,0.0,0.0,0,994.4,0,1,"",95
"2024-03-31 02:12:00",2.7,2.0,0.0,0.0,0,994.4,0,1,"",95
"2024-03-31 02:13:00",2.7,2.0,0.0,0.0,0,994.4,1,1,"",95
"2024-03-31 02:14:00",2.7,2.0,0.0,0.0,0,994.4,1,1,"",95
"2024-03-31 02:15:00",2.6,1.9,0.0,0.0,0,994.4,1,1,"",95
"2024-03-31 02:16:00",2.6,1.9,0.0,0.0,0,994.4,1,1,"",95
"2024-03-31 02:17:00",2.6,1.9,0.0,0.0,0,994.4,1,2,"",95
"2024-03-31 02:18:00",2.6,1.9,0.0,0.0,0,994.4,1,2,"",95
"2024-03-31 02:19:00",2.5,1.8,0.0,0.0,0,994.4,1,2,"",95
"2024-03-31 02:20:00",2.5,1.8,0.0,0.0,0,994.4,1,2,"",95
"2024-03-31 02:21:00",2.4,1.7,0.0,0.0,0,994.4,1,2,"",95
"2024-03-31 02:22:00",2.4,1.7,0.0,0.0,0,994.3,1,2,"",95
"2024-03-31 02:23:00",2.5,1.8,0.0,0.0,0,994.3,1,1,"",95
"2024-03-31 02:24:00",2.4,1.7,0.0,0.0,0,994.3,0,1,"",95
"2024-03-31 02:25:00",2.4,1.7,0.0,0.0,0,994.3,0,1,"",95
"2024-03-31 02:26:00",2.4,1.7,0.0,0.0,0,994.3,0,0,"",95
"2024-03-31 02:27:00",2.4,1.7,0.0,0.0,0,994.2,0,0,"",95
"2024-03-31 02:28:00",2.4,1.7,0.0,0.0,0,994.3,0,1,"",95
"2024-03-31 02:29:00",2.3,1.6,0.0,0.0,0,994.2,0,1,"",95
"2024-03-31 02:30:00",2.4,1.7,0.0,0.0,0,994.3,0,1,"",95
"2024-03-31 02:31:00",2.3,1.6,0.0,0.0,0,994.2,0,1,"",95
"2024-03-31 02:32:00",2.4,1.7,0.0,0.0,0,994.2,0,0,"",95
"2024-03-31 02:33:00",2.4,1.7,0.0,0.0,0,994.2,0,0,"",95
"2024-03-31 02:34:00",2.4,1.7,0.0,0.0,0,994.2,0,1,"",95
"2024-03-31 02:35:00",2.4,1.7,0.0,0.0,0,994.2,0,1,"",95
"2024-03-31 02:36:00",2.3,1.6,0.0,0.0,0,994.2,0,1,"",95
"2024-03-31 02:37:00",2.3,1.6,0.0,0.0,0,994.2,0,0,"",95
"2024-03-31 02:38:00",2.3,1.6,0.0,0.0,0,994.2,0,0,"",95
"2024-03-31 02:39:00",2.3,1.6,0.0,0.0,0,994.3,0,1,"",95
"2024-03-31 02:40:00",2.2,1.5,0.0,0.0,0,994.3,0,1,"",95
"2024-03-31 02:41:00",2.3,1.6,0.0,0.0,0,994.2,0,1,"",95
"2024-03-31 02:42:00",2.3,1.6,0.0,0.0,0,994.3,0,1,"",95
"2024-03-31 02:43:00",2.3,1.6,0.0,0.0,0,994.3,0,0,"",95
"2024-03-31 02:44:00",2.2,1.5,0.0,0.0,0,994.3,0,1,"",95
"2024-03-31 02:45:00",2.2,1.5,0.0,0.0,0,994.3,0,0,"",95
"2024-03-31 02:46:00",2.2,1.5,0.0,0.0,0,994.3,0,1,"",95
"2024-03-31 02:47:00",2.2,1.5,0.0,0.0,0,994.3,0,0,"",95
"2024-03-31 02:48:00",2.2,1.5,0.0,0.0,0,994.3,0,0,"",95
"2024-03-31 02:49:00",2.2,1.5,0.0,0.0,0,994.2,0,1,"",95
"2024-03-31 02:50:00",2.2,1.5,0.0,0.0,0,994.3,0,1,"",95
"2024-03-31 02:51:00",2.2,1.5,0.0,0.0,0,994.2,0,1,"",95
"2024-03-31 02:52:00",2.2,1.5,0.0,0.0,0,994.2,0,1,"",95
"2024-03-31 02:53:00",2.2,1.5,0.0,0.0,0,994.2,0,1,"",95
"2024-03-31 02:54:00",2.2,1.5,0.0,0.0,0,994.2,0,1,"",95
"2024-03-31 02:55:00",2.1,1.4,0.0,0.0,0,994.2,0,1,"",95
"2024-03-31 02:56:00",2.1,1.4,0.0,0.0,0,994.2,0,1,"",95
"2024-03-31 02:57:00",2.1,1.4,0.0,0.0,0,994.2,0,1,"",95
"2024-03-31 02:58:00",2.1,1.4,0.0,0.0,0,994.2,0,1,"",95
"2024-03-31 02:59:00",2.1,1.4,0.0,0.0,0,994.2,0,1,"",95
"2024-03-31 03:00:00",2.1,1.4,0.0,0.0,0,994.2,0,0,"",95
"2024-03-31 03:01:00",2.1,1.4,0.0,0.0,0,994.2,0,1,"",95
"2024-03-31 03:02:00",2.1,1.4,0.0,0.0,0,994.1,0,0,"",95
"2024-03-31 03:03:00",2.1,1.4,0.0,0.0,0,994.2,0,1,"",95
"2024-03-31 03:04:00",2.0,1.3,0.0,0.0,0,994.1,0,1,"",95
"2024-03-31 03:05:00",1.9,1.2,0.0,0.0,0,994.2,0,1,"",95
"2024-03-31 03:06:00",2.0,1.3,0.0,0.0,0,994.1,0,0,"",95
"2024-03-31 03:07:00",2.0,1.3,0.0,0.0,0,994.1,0,1,"",95
"2024-03-31 03:08:00",2.0,1.3,0.0,0.0,0,994.1,0,1,"",95
"2024-03-31 03:09:00",1.9,1.2,0.0,0.0,0,994.1,1,2,"",95
"2024-03-31 03:10:00",1.9,1.2,0.0,0.0,0,994.1,1,1,"",95
"2024-03-31 03:11:00",1.9,1.2,0.0,0.0,0,994.1,1,1,"",95
"2024-03-31 03:12:00",1.9,1.2,0.0,0.0,0,994.1,0,1,"",95
"2024-03-31 03:13:00",1.9,1.2,0.0,0.0,0,994.1,0,1,"",95
"2024-03-31 03:14:00",1.9,1.2,0.0,0.0,0,994.1,0,1,"",95
"2024-03-31 03:15:00",1.9,1.2,0.0,0.0,0,994.1,0,0,"",95
"2024-03-31 03:16:00",1.9,1.2,0.0,0.0,0,994.1,0,1,"",95
"2024-03-31 03:17:00",1.9,1.2,0.0,0.0,0,994.1,1,1,"",95
"2024-03-31 03:18:00",1.9,1.2,0.0,0.0,0,994.1,1,1,"",95
"2024-03-31 03:19:00",1.9,1.2,0.0,0.0,0,994.1,1,1,"",95
"2024-03-31 03:20:00",1.9,1.2,0.0,0.0,0,994.1,1,1,"",95
"2024-03-31 03:21:00",1.9,1.2,0.0,0.0,0,994.0,0,1,"",95
"2024-03-31 03:22:00",1.8,1.1,0.0,0.0,0,994.1,0,1,"",95
"2024-03-31 03:23:00",1.8,1.1,0.0,0.0,0,994.1,0,1,"",95
"2024-03-31 03:24:00",1.8,1.1,0.0,0.0,0,994.1,0,1,"",95
"2024-03-31 03:25:00",1.8,1.1,0.0,0.0,0,994.1,0,1,"",95
"2024-03-31 03:26:00",1.8,1.1,0.0,0.0,0,994.1,1,1,"",95
"2024-03-31 03:27:00",1.8,1.1,0.0,0.0,0,994.1,0,1,"",95
"2024-03-31 03:28:00",1.8,1.1,0.0,0.0,0,994.1,0,1,"",95
"2024-03-31 03:29:00",1.8,1.1,0.0,0.0,0,994.1,0,1,"",95
"2024-03-31 03:30:00",1.8,1.1,0.0,0.0,0,994.0,0,1,"",95
"2024-03-31 03:31:00",1.8,1.1,0.0,0.0,0,994.1,0,0,"",95
"2024-03-31 03:32:00",1.7,1.0,0.0,0.0,0,994.0,0,1,"",95
"2024-03-31 03:33:00",1.7,1.0,0.0,0.0,0,994.0,0,1,"",95
"2024-03-31 03:34:00",1.7,1.0,0.0,0.0,0,994.0,0,1,"",95
"2024-03-31 03:35:00",1.7,1.0,0.0,0.0,0,994.0,0,1,"",95
"2024-03-31 03:36:00",1.7,1.0,0.0,0.0,0,994.0,0,0,"",95
"2024-03-31 03:37:00",1.7,1.0,0.0,0.0,0,994.0,0,1,"",95
"2024-03-31 03:38:00",1.6,0.9,0.0,0.0,0,994.0,0,0,"",95
"2024-03-31 03:39:00",1.6,0.9,0.0,0.0,0,994.0,0,0,"",95
"2024-03-31 03:40:00",1.6,0.9,0.0,0.0,0,994.0,0,0,"",95
"2024-03-31 03:41:00",1.6,0.9,0.0,0.0,0,994.0,0,1,"",95
"2024-03-31 03:42:00",1.6,0.9,0.0,0.0,0,994.0,0,0,"",95
"2024-03-31 03:43:00",1.6,0.9,0.0,0.0,0,994.0,0,1,"",95
"2024-03-31 03:44:00",1.6,0.9,0.0,0.0,0,994.0,1,1,"",95
"2024-03-31 03:45:00",1.6,0.9,0.0,0.0,0,994.0,0,2,"",95
"2024-03-31 03:46:00",1.6,0.9,0.0,0.0,0,994.0,1,2,"",95
"2024-03-31 03:47:00",1.6,0.9,0.0,0.0,0,994.0,0,1,"",95
"2024-03-31 03:48:00",1.6,0.9,0.0,0.0,0,993.9,0,1,"",95
"2024-03-31 03:49:00",1.5,0.8,0.0,0.0,0,994.0,0,1,"",95
"2024-03-31 03:50:00",1.5,0.8,0.0,0.0,0,994.0,0,1,"",95
"2024-03-31 03:51:00",1.5,0.8,0.0,0.0,0,994.0,0,1,"",95
"2024-03-31 03:52:00",1.4,0.7,0.0,0.0,0,993.9,0,1,"",95
"2024-03-31 03:53:00",1.4,0.7,0.0,0.0,0,993.9,0,0,"",95
"2024-03-31 03:54:00",1.4,0.7,0.0,0.0,0,993.9,0,0,"",95
"2024-03-31 03:55:00",1.4,0.7,0.0,0.0,0,993.9,0,1,"",95
"2024-03-31 03:56:00",1.4,0.7,0.0,0.0,0,993.9,0,0,"",95
"2024-03-31 03:57:00",1.4,0.7,0.0,0.0,0,993.9,0,1,"",95
"2024-03-31 03:58:00",1.4,0.7,0.0,0.0,0,993.9,0,1,"",95
"2024-03-31 03:59:00",1.4,0.7,0.0,0.0,0,993.9,0,1,"",95
"2024-03-31 04:00:00",1.4,0.7,0.0,0.0,0,993.9,0,1,"",95
"2024-03-31 04:01:00",1.4,0.7,0.0,0.0,0,993.9,0,0,"",95
"2024-03-31 04:02:00",1.3,0.6,0.0,0.0,0,993.8,0,1,"",95
"2024-03-31 04:03:00",1.3,0.6,0.0,0.0,0,993.8,1,1,"",95
"2024-03-31 04:04:00",1.3,0.6,0.0,0.0,0,993.8,0,1,"",95
"2024-03-31 04:05:00",1.3,0.6,0.0,0.0,0,993.8,0,1,"",95
"2024-03-31 04:06:00",1.3,0.6,0.0,0.0,0,993.8,0,1,"",95
"2024-03-31 04:07:00",1.3,0.6,0.0,0.0,0,993.8,0,1,"",95
"2024-03-31 04:08:00",1.3,0.6,0.0,0.0,0,993.8,0,1,"",95
"2024-03-31 04:09:00",1.3,0.6,0.0,0.0,0,993.8,0,1,"",95
"2024-03-31 04:10:00",1.3,0.6,0.0,0.0,0,993.8,0,1,"",95
"2024-03-31 04:11:00",1.3,0.6,0.0,0.0,0,993.8,0,1,"",95
"2024-03-31 04:12:00",1.3,0.6,0.0,0.0,0,993.8,0,1,"",95
"2024-03-31 04:13:00",1.2,0.5,0.0,0.0,0,993.7,0,0,"",95
"2024-03-31 04:14:00",1.2,0.5,0.0,0.0,0,993.7,0,1,"",95
"2024-03-31 04:15:00",1.2,0.5,0.0,0.0,0,993.7,0,1,"",95
"2024-03-31 04:16:00",1.2,0.5,0.0,0.0,0,993.7,0,0,"",95
"2024-03-31 04:17:00",1.2,0.5,0.0,0.0,0,993.7,0,0,"",95
"2024-03-31 04:18:00",1.2,0.5,0.0,0.0,0,993.7,0,0,"",95
"2024-03-31 04:19:00",1.1,0.4,0.0,0.0,0,993.7,0,1,"",95
"2024-03-31 04:20:00",1.1,0.4,0.0,0.0,0,993.7,0,1,"",95
"2024-03-31 04:21:00",1.1,0.4,0.0,0.0,0,993.7,1,1,"",95
"2024-03-31 04:22:00",1.1,0.4,0.0,0.0,0,993.7,0,1,"",95
"2024-03-31 04:23:00",1.1,0.4,0.0,0.0,0,993.6,1,1,"",95
"2024-03-31 04:24:00",1.1,0.4,0.0,0.0,0,993.6,0,1,"",95
"2024-03-31 04:25:00",1.2,0.5,0.0,0.0,0,993.6,0,0,"",95
"2024-03-31 04:26:00",1.2,0.6,0.0,0.0,0,993.6,0,1,"",96
"2024-03-31 04:27:00",1.1,0.5,0.0,0.0,0,993.8,0,0,"",96
"2024-03-31 04:28:00",1.1,0.4,0.0,0.0,0,993.7,0,1,"",95
"2024-03-31 04:29:00",1.1,0.4,0.0,0.0,0,993.7,0,1,"",95
"2024-03-31 04:30:00",1.1,0.4,0.0,0.0,0,993.7,0,1,"",95
"2024-03-31 04:31:00",1.1,0.4,0.0,0.0,0,993.7,0,1,"",95
"2024-03-31 04:32:00",1.1,0.4,0.0,0.0,0,993.7,0,1,"",95
"2024-03-31 04:33:00",1.1,0.4,0.0,0.0,0,993.7,0,1,"",95
"2024-03-31 04:34:00",1.1,0.4,0.0,0.0,0,993.7,0,0,"",95
"2024-03-31 04:35:00",1.1,0.4,0.0,0.0,0,993.7,0,0,"",95
"2024-03-31 04:36:00",1.1,0.4,0.0,0.0,0,993.7,0,1,"",95
"2024-03-31 04:37:00",1.1,0.4,0.0,0.0,0,993.7,0,1,"",95
"2024-03-31 04:38:00",1.0,0.3,0.0,0.0,0,993.7,0,0,"",95
"2024-03-31 04:39:00",1.0,0.3,0.0,0.0,0,993.7,0,1,"",95
"2024-03-31 04:40:00",1.0,0.3,0.0,0.0,0,993.7,0,1,"",95
"2024-03-31 04:41:00",0.9,0.2,0.0,0.0,0,993.7,0,1,"",95
"2024-03-31 04:42:00",0.9,0.2,0.0,0.0,0,993.7,0,1,"",95
"2024-03-31 04:43:00",1.0,0.3,0.0,0.0,0,993.7,0,1,"",95
"2024-03-31 04:44:00",1.0,0.3,0.0,0.0,0,993.7,1,1,"",95
"2024-03-31 04:45:00",1.0,0.3,0.0,0.0,0,993.6,0,1,"",95
"2024-03-31 04:46:00",1.0,0.3,0.0,0.0,0,993.6,0,1,"",95
"2024-03-31 04:47:00",0.9,0.2,0.0,0.0,0,993.6,0,1,"",95
"2024-03-31 04:48:00",0.9,0.2,0.0,0.0,0,993.6,1,1,"",95
"2024-03-31 04:49:00",0.9,0.2,0.0,0.0,0,993.6,0,1,"",95
"2024-03-31 04:50:00",0.9,0.3,0.0,0.0,0,993.6,0,1,"",96
"2024-03-31 04:51:00",0.9,0.2,0.0,0.0,0,993.5,0,1,"",95
"2024-03-31 04:52:00",0.9,0.2,0.0,0.0,0,993.5,0,0,"",95
"2024-03-31 04:53:00",0.8,0.1,0.0,0.0,0,993.5,0,0,"",95
"2024-03-31 04:54:00",0.8,0.1,0.0,0.0,0,993.5,0,0,"",95
"2024-03-31 04:55:00",0.8,0.1,0.0,0.0,0,993.5,0,1,"",95
"2024-03-31 04:56:00",0.9,0.2,0.0,0.0,0,993.5,0,0,"",95
"2024-03-31 04:57:00",0.8,0.1,0.0,0.0,0,993.5,0,1,"",95
"2024-03-31 04:58:00",0.8,0.1,0.0,0.0,0,993.5,0,1,"",95
"2024-03-31 04:59:00",0.8,0.2,0.0,0.0,0,993.5,0,1,"",96
"2024-03-31 05:00:00",0.8,0.2,0.0,0.0,0,993.5,0,1,"",96
"2024-03-31 05:01:00",0.8,0.1,0.0,0.0,0,993.4,0,1,"",95
"2024-03-31 05:02:00",0.8,0.1,0.0,0.0,0,993.4,0,1,"",95
"2024-03-31 05:03:00",0.8,0.1,0.0,0.0,0,993.4,0,1,"",95
"2024-03-31 05:04:00",0.8,0.1,0.0,0.0,0,993.4,0,0,"",95
"2024-03-31 05:05:00",0.8,0.1,0.0,0.0,0,993.3,0,1,"",95
"2024-03-31 05:06:00",0.8,0.1,0.0,0.0,0,993.4,0,1,"",95
"2024-03-31 05:07:00",0.8,0.1,0.0,0.0,0,993.3,0,0,"",95
"2024-03-31 05:08:00",0.8,0.1,0.0,0.0,0,993.4,0,1,"",95
"2024-03-31 05:09:00",0.8,0.1,0.0,0.0,0,993.4,0,0,"",95
"2024-03-31 05:10:00",0.7,0.0,0.0,0.0,0,993.3,0,1,"",95
"2024-03-31 05:11:00",0.7,0.0,0.0,0.0,0,993.3,0,1,"",95
"2024-03-31 05:12:00",0.7,0.0,0.0,0.0,0,993.3,1,1,"",95
"2024-03-31 05:13:00",0.7,0.1,0.0,0.0,0,993.3,0,1,"",96
"2024-03-31 05:14:00",0.7,0.0,0.0,0.0,0,993.3,0,1,"",95
"2024-03-31 05:15:00",0.7,0.1,0.0,0.0,0,993.3,1,2,"",96
"2024-03-31 05:16:00",0.7,0.1,0.0,0.0,0,993.2,1,2,"",96
"2024-03-31 05:17:00",0.7,0.1,0.0,0.0,0,993.3,1,2,"",96
"2024-03-31 05:18:00",0.7,0.1,0.0,0.0,0,993.3,1,2,"",96
"2024-03-31 05:19:00",0.8,0.2,0.0,0.0,0,993.3,1,2,"",96
"2024-03-31 05:20:00",0.8,0.1,0.0,0.0,0,993.3,1,1,"",95
"2024-03-31 05:21:00",0.8,0.1,0.0,0.0,0,993.2,1,2,"",95
"2024-03-31 05:22:00",0.8,0.1,0.0,0.0,0,993.3,1,2,"",95
"2024-03-31 05:23:00",0.8,0.1,0.0,0.0,0,993.3,1,2,"",95
"2024-03-31 05:24:00",0.8,0.1,0.0,0.0,0,993.2,1,1,"",95
"2024-03-31 05:25:00",0.7,0.0,0.0,0.0,0,993.2,1,1,"",95
"2024-03-31 05:26:00",0.7,0.0,0.0,0.0,0,993.2,1,1,"",95
"2024-03-31 05:27:00",0.7,0.1,0.0,0.0,0,993.2,1,1,"",96
"2024-03-31 05:28:00",0.6,"-0.1",0.0,0.0,0,993.2,0,1,"",95
"2024-03-31 05:29:00",0.6,"-0.1",0.0,0.0,0,993.2,0,0,"",95
"2024-03-31 05:30:00",0.6,0.0,0.0,0.0,0,993.1,0,0,"",96
"2024-03-31 05:31:00",0.7,0.1,0.0,0.0,0,993.2,0,0,"",96
"2024-03-31 05:32:00",0.7,0.1,0.0,0.0,0,993.1,0,0,"",96
"2024-03-31 05:33:00",0.7,0.1,0.0,0.0,0,993.1,0,1,"",96
"2024-03-31 05:34:00",0.7,0.1,0.0,0.0,0,993.1,0,1,"",96
"2024-03-31 05:35:00",0.7,0.1,0.0,0.0,0,993.1,0,0,"",96
"2024-03-31 05:36:00",0.6,0.0,0.0,0.0,0,993.0,0,1,"",96
"2024-03-31 05:37:00",0.6,0.0,0.0,0.0,0,993.0,0,1,"",96
"2024-03-31 05:38:00",0.6,0.0,0.0,0.0,0,993.0,0,0,"",96
"2024-03-31 05:39:00",0.6,0.0,0.0,0.0,0,993.0,0,0,"",96
"2024-03-31 05:40:00",0.7,0.1,0.0,0.0,0,993.0,0,0,"",96
"2024-03-31 05:41:00",0.6,0.0,0.0,0.0,0,993.0,0,0,"",96
"2024-03-31 05:42:00",0.6,0.0,0.0,0.0,0,993.0,0,1,"",96
"2024-03-31 05:43:00",0.6,0.0,0.0,0.0,0,993.0,0,1,"",96
"2024-03-31 05:44:00",0.6,0.0,0.0,0.0,0,993.0,1,1,"",96
"2024-03-31 05:45:00",0.6,0.0,0.0,0.0,0,993.0,0,1,"",96
"2024-03-31 05:46:00",0.6,0.0,0.0,0.0,0,993.0,0,1,"",96
"2024-03-31 05:47:00",0.6,0.0,0.0,0.0,0,993.0,0,1,"",96
"2024-03-31 05:48:00",0.6,0.0,0.0,0.0,0,993.0,0,1,"",96
"2024-03-31 05:49:00",0.6,0.0,0.0,0.0,0,993.0,0,1,"",96
"2024-03-31 05:50:00",0.6,0.0,0.0,0.0,0,993.0,0,1,"",96
"2024-03-31 05:51:00",0.6,0.0,0.0,0.0,0,993.0,0,1,"",96
"2024-03-31 05:52:00",0.6,0.0,0.0,0.0,0,992.9,0,1,"",96
"2024-03-31 05:53:00",0.6,0.0,0.0,0.0,0,992.9,0,0,"",96
"2024-03-31 05:54:00",0.6,0.0,0.0,0.0,0,993.0,0,1,"",96
"2024-03-31 05:55:00",0.6,0.0,0.0,0.0,0,993.0,0,1,"",96
"2024-03-31 05:56:00",0.6,0.0,0.0,0.0,0,992.9,0,1,"",96
"2024-03-31 05:57:00",0.6,0.0,0.0,0.0,0,992.9,0,1,"",96
"2024-03-31 05:58:00",0.6,0.0,0.0,0.0,0,992.9,0,1,"",96
"2024-03-31 05:59:00",0.6,0.0,0.0,0.0,0,992.9,0,1,"",96
"2024-03-31 06:00:00",0.7,0.1,0.0,0.0,0,992.8,0,0,"",96
"2024-03-31 06:01:00",0.7,0.1,0.0,0.0,0,992.9,0,1,"",96
"2024-03-31 06:02:00",0.7,0.1,0.0,0.0,0,992.9,0,1,"",96
"2024-03-31 06:03:00",0.6,0.0,0.0,0.0,0,992.8,0,1,"",96
"2024-03-31 06:04:00",0.6,0.0,0.0,0.0,0,992.9,0,1,"",96
"2024-03-31 06:05:00",0.6,0.0,0.0,0.0,0,992.8,1,1,"",96
"2024-03-31 06:06:00",0.6,0.0,0.0,0.0,0,992.8,0,1,"",96
"2024-03-31 06:07:00",0.6,0.0,0.0,0.0,0,992.8,0,1,"",96
"2024-03-31 06:08:00",0.6,0.0,0.0,0.0,0,992.8,0,1,"",96
"2024-03-31 06:09:00",0.6,0.0,0.0,0.0,0,992.8,0,1,"",96
"2024-03-31 06:10:00",0.6,0.0,0.0,0.0,0,992.8,0,0,"",96
"2024-03-31 06:11:00",0.6,0.0,0.0,0.0,0,992.8,0,0,"",96
"2024-03-31 06:12:00",0.6,0.0,0.0,0.0,0,992.8,0,0,"",96
"2024-03-31 06:13:00",0.6,0.0,0.0,0.0,0,992.8,0,0,"",96
"2024-03-31 06:14:00",0.6,0.0,0.0,0.0,0,992.7,0,1,"",96
"2024-03-31 06:15:00",0.6,0.0,0.0,0.0,0,992.8,0,1,"",96
"2024-03-31 06:16:00",0.5,"-0.2",0.0,0.0,0,992.8,0,1,"",95
"2024-03-31 06:17:00",0.5,"-0.2",0.0,0.0,0,992.8,0,1,"",95
"2024-03-31 06:18:00",0.5,"-0.2",0.0,0.0,0,992.8,0,1,"",95
"2024-03-31 06:19:00",0.6,"-0.1",0.0,0.0,0,992.8,0,1,"",95
"2024-03-31 06:20:00",0.6,0.0,0.0,0.0,0,992.7,0,0,"",96
"2024-03-31 06:21:00",0.6,0.0,0.0,0.0,0,992.7,0,0,"",96
"2024-03-31 06:22:00",0.6,0.0,0.0,0.0,0,992.7,0,0,"",96
"2024-03-31 06:23:00",0.6,0.0,0.0,0.0,0,992.7,0,1,"",96
"2024-03-31 06:24:00",0.5,"-0.1",0.0,0.0,0,992.7,0,0,"",96
"2024-03-31 06:25:00",0.5,"-0.2",0.0,0.0,0,992.7,0,0,"",95
"2024-03-31 06:26:00",0.5,"-0.2",0.0,0.0,0,992.7,0,1,"",95
"2024-03-31 06:27:00",0.6,0.0,0.0,0.0,0,992.7,0,0,"",96
"2024-03-31 06:28:00",0.6,0.0,0.0,0.0,0,992.7,0,0,"",96
"2024-03-31 06:29:00",0.6,0.0,0.0,0.0,0,992.7,0,0,"",96
"2024-03-31 06:30:00",0.6,0.0,0.0,0.0,0,992.7,0,0,"",96
"2024-03-31 06:31:00",0.5,"-0.1",0.0,0.0,0,992.7,0,0,"",96
"2024-03-31 06:32:00",0.5,"-0.1",0.0,0.0,0,992.7,0,0,"",96
"2024-03-31 06:33:00",0.5,"-0.1",0.0,0.0,0,992.7,0,1,"",96
"2024-03-31 06:34:00",0.5,"-0.1",0.0,0.0,0,992.7,0,1,"",96
"2024-03-31 06:35:00",0.5,"-0.1",0.0,0.0,0,992.7,0,1,"",96
"2024-03-31 06:36:00",0.5,"-0.1",0.0,0.0,0,992.7,1,1,"",96
"2024-03-31 06:37:00",0.5,"-0.1",0.0,0.0,0,992.7,1,1,"",96
"2024-03-31 06:38:00",0.5,"-0.1",0.0,0.0,0,992.6,0,1,"",96
"2024-03-31 06:39:00",0.6,0.0,0.0,0.0,0,992.7,1,1,"",96
"2024-03-31 06:40:00",0.6,0.0,0.0,0.0,0,992.6,0,1,"",96
"2024-03-31 06:41:00",0.6,0.0,0.0,0.0,0,992.7,1,1,"",96
"2024-03-31 06:42:00",0.6,0.0,0.0,0.0,0,992.6,0,1,"",96
"2024-03-31 06:43:00",0.6,0.0,0.0,0.0,0,992.6,0,1,"",96
"2024-03-31 06:44:00",0.6,0.0,0.0,0.0,0,992.7,1,2,"",96
"2024-03-31 06:45:00",0.5,"-0.1",0.0,0.0,0,992.7,1,1,"",96
"2024-03-31 06:46:00",0.5,"-0.1",0.0,0.0,0,992.7,0,1,"",96
"2024-03-31 06:47:00",0.5,"-0.1",0.0,0.0,0,992.7,0,1,"",96
"2024-03-31 06:48:00",0.6,0.0,0.0,0.0,0,992.7,1,1,"",96
"2024-03-31 06:49:00",0.6,0.0,0.0,0.0,0,992.7,0,1,"",96
"2024-03-31 06:50:00",0.6,0.0,0.0,0.0,0,992.6,0,1,"",96
"2024-03-31 06:51:00",0.6,0.0,0.0,0.0,0,992.6,1,1,"",96
"2024-03-31 06:52:00",0.6,0.0,0.0,0.0,0,992.6,0,2,"",96
"2024-03-31 06:53:00",0.6,0.0,0.0,0.0,0,992.6,0,1,"",96
"2024-03-31 06:54:00",0.6,0.0,0.0,0.0,0,992.5,0,1,"",96
"2024-03-31 06:55:00",0.6,0.0,0.0,0.0,5,992.5,0,0,"",96
"2024-03-31 06:56:00",0.6,0.0,0.0,0.0,5,992.5,0,0,"",96
"2024-03-31 06:57:00",0.6,0.0,0.0,0.0,5,992.5,0,0,"",96
"2024-03-31 06:58:00",0.6,0.0,0.0,0.0,5,992.5,0,0,"",96
"2024-03-31 06:59:00",0.6,0.0,0.0,0.0,5,992.5,1,2,"",96
"2024-03-31 07:00:00",0.6,0.0,0.0,0.0,5,992.5,1,2,"",96
"2024-03-31 07:01:00",0.6,0.0,0.0,0.0,5,992.5,0,2,"",96
"2024-03-31 07:02:00",0.7,0.1,0.0,0.0,7,992.5,0,1,"",96
"2024-03-31 07:03:00",0.6,0.0,0.0,0.0,7,992.5,0,1,"",96
"2024-03-31 07:04:00",0.6,0.0,0.0,0.0,7,992.5,1,2,"",96
"2024-03-31 07:05:00",0.6,0.0,0.0,0.0,7,992.5,1,2,"",96
"2024-03-31 07:06:00",0.6,0.0,0.0,0.0,9,992.5,1,2,"",96
"2024-03-31 07:07:00",0.6,0.0,0.0,0.0,11,992.5,0,2,"",96
"2024-03-31 07:08:00",0.6,0.0,0.0,0.0,12,992.5,0,1,"",96
"2024-03-31 07:09:00",0.6,0.0,0.0,0.0,14,992.5,0,1,"",96
"2024-03-31 07:10:00",0.7,0.1,0.0,0.0,14,992.5,1,1,"",96
"2024-03-31 07:11:00",0.7,0.1,0.0,0.0,14,992.5,0,1,"",96
"2024-03-31 07:12:00",0.8,0.2,0.0,0.0,16,992.5,1,2,"",96
"2024-03-31 07:13:00",0.7,0.1,0.0,0.0,16,992.5,0,1,"",96
"2024-03-31 07:14:00",0.8,0.2,0.0,0.0,16,992.6,0,1,"",96
"2024-03-31 07:15:00",0.8,0.2,0.0,0.0,16,992.6,0,1,"",96
"2024-03-31 07:16:00",0.8,0.2,0.0,0.0,14,992.5,1,1,"",96
"2024-03-31 07:17:00",0.8,0.2,0.0,0.0,16,992.6,1,1,"",96
"2024-03-31 07:18:00",0.9,0.3,0.0,0.0,18,992.5,1,1,"",96
"2024-03-31 07:19:00",0.8,0.2,0.0,0.0,16,992.6,1,2,"",96
"2024-03-31 07:20:00",0.9,0.3,0.0,0.0,16,992.6,1,2,"",96
"2024-03-31 07:21:00",0.9,0.3,0.0,0.0,14,992.5,0,1,"",96
"2024-03-31 07:22:00",0.9,0.3,0.0,0.0,14,992.5,1,1,"",96
"2024-03-31 07:23:00",0.9,0.3,0.0,0.0,16,992.5,1,2,"",96
"2024-03-31 07:24:00",0.9,0.3,0.0,0.0,21,992.5,1,2,"",96
"2024-03-31 07:25:00",0.9,0.3,0.0,0.0,23,992.6,1,2,"",96
"2024-03-31 07:26:00",1.0,0.4,0.0,0.0,23,992.6,1,3,"",96
"2024-03-31 07:27:00",1.1,0.5,0.0,0.0,23,992.6,1,2,"",96
"2024-03-31 07:28:00",1.1,0.5,0.0,0.0,26,992.6,1,2,"",96
"2024-03-31 07:29:00",1.1,0.5,0.0,0.0,28,992.6,1,2,"",96
"2024-03-31 07:30:00",1.1,0.5,0.0,0.0,28,992.6,0,1,"",96
"2024-03-31 07:31:00",1.1,0.5,0.0,0.0,26,992.6,1,2,"",96
"2024-03-31 07:32:00",1.1,0.5,0.0,0.0,26,992.6,0,1,"",96
"2024-03-31 07:33:00",1.2,0.6,0.0,0.0,26,992.6,1,2,"",96
"2024-03-31 07:34:00",1.2,0.6,0.0,0.0,26,992.5,0,1,"",96
"2024-03-31 07:35:00",1.3,0.7,0.0,0.0,28,992.5,1,2,"",96
"2024-03-31 07:36:00",1.3,0.7,0.0,0.0,30,992.6,1,2,"",96
"2024-03-31 07:37:00",1.3,0.7,0.0,0.0,32,992.6,1,2,"",96
"2024-03-31 07:38:00",1.3,0.7,0.0,0.0,33,992.6,0,1,"",96
"2024-03-31 07:39:00",1.4,0.8,0.0,0.0,35,992.6,0,1,"",96
"2024-03-31 07:40:00",1.4,0.8,0.0,0.0,33,992.6,1,2,"",96
"2024-03-31 07:41:00",1.5,0.9,0.0,0.0,32,992.5,1,1,"",96
"2024-03-31 07:42:00",1.6,1.0,0.0,0.0,32,992.5,1,1,"",96
"2024-03-31 07:43:00",1.7,1.1,0.0,0.0,33,992.5,0,1,"",96
"2024-03-31 07:44:00",1.8,1.2,0.0,0.0,33,992.5,1,2,"",96
"2024-03-31 07:45:00",1.8,1.2,0.0,0.0,35,992.5,1,2,"",96
"2024-03-31 07:46:00",1.9,1.3,0.0,0.0,35,992.5,1,2,"",96
"2024-03-31 07:47:00",1.9,1.3,0.0,0.0,35,992.5,1,2,"",96
"2024-03-31 07:48:00",2.0,1.4,0.0,0.0,35,992.5,1,2,"",96
"2024-03-31 07:49:00",2.1,1.5,0.0,0.0,37,992.6,1,1,"",96
"2024-03-31 07:50:00",2.2,1.6,0.0,0.0,37,992.6,1,1,"",96
"2024-03-31 07:51:00",2.2,1.6,0.0,0.0,37,992.6,1,2,"",96
"2024-03-31 07:52:00",2.3,1.7,0.0,0.0,39,992.6,1,2,"",96
"2024-03-31 07:53:00",2.3,1.7,0.0,0.0,39,992.6,1,1,"",96
"2024-03-31 07:54:00",2.4,1.8,0.0,0.0,40,992.5,1,4,0.6,96
"2024-03-31 07:55:00",2.4,1.8,0.0,0.0,40,992.5,1,2,"",96
"2024-03-31 07:56:00",2.5,1.9,0.0,0.0,42,992.5,1,2,"",96
"2024-03-31 07:57:00",2.6,2.0,0.0,0.0,47,992.5,1,2,"",96
"2024-03-31 07:58:00",2.6,2.0,0.0,0.0,47,992.6,1,2,"",96
"2024-03-31 07:59:00",2.7,2.1,0.0,0.0,46,992.5,2,3,"",96
"2024-03-31 08:00:00",2.7,2.1,0.0,0.0,46,992.5,1,2,"",96
"2024-03-31 08:01:00",2.8,2.2,0.0,0.0,49,992.5,1,2,"",96
"2024-03-31 08:02:00",2.9,2.3,0.0,0.0,46,992.6,1,2,"",96
"2024-03-31 08:03:00",3.0,2.4,0.0,0.0,62,992.5,2,4,1.2,96